Orbital Elements at Epoch 2459000.5 (2020-May-31.0) TDB
Reference: JPL 11 (heliocentric ecliptic J2000)
Element | Value | Uncertainty (1-sigma) | Units |
e | .02606263654927665 | 7.1778e-08 | |
a | 2.521368264709372 | 3.6186e-08 | au |
q | 2.455654760019371 | 1.7645e-07 | au |
i | 3.072196376072748 | 7.4667e-06 | deg |
node | 44.46384845951003 | 0.00018691 | deg |
peri | 41.35676902893172 | 0.0003485 | deg |
M | 302.1150718924064 | 0.00030308 | deg |
tp | 2459235.634225117030 (2021-Jan-21.13422512) | 0.0012343 | TDB |
period | 1462.355120918363 4.00 | 3.1481e-05 8.619e-08 | d yr |
n | .2461782332145964 | 5.2996e-09 | deg/d |
Q | 2.587081769399373 | 3.7129e-08 | au |
|
| | Orbit Determination Parameters
Additional Information
|